Location: Newark
(36.1358°N, 115.1208°W)
Time: 06:31:47
(UTC+00:00)

Transit 2A Rocket - All Passes

Search period start: 25 February 2020 00:00
Search period end: 06 March 2020 00:00
Orbit: 591 x 912 km, 66.7° (Epoch: 24 February)

Date Brightness Start Highest point End Pass type
(mag) Time Alt. Az. Time Alt. Az. Time Alt. Az.
25 Feb - 04:09:00 10° SSE 04:12:18 22° ESE 04:15:40 10° ENE night (unlit)
25 Feb - 05:50:55 10° WSW 05:54:38 28° NW 05:58:29 10° N night (unlit)
25 Feb - 12:54:05 10° NNE 12:57:03 15° NE 13:00:08 10° E visible
25 Feb - 14:34:46 10° NNW 14:40:08 82° WSW 14:45:57 10° SSE daylight
26 Feb - 03:29:05 10° ESE 03:30:04 11° ESE 03:31:03 10° E night (unlit)
26 Feb - 05:07:47 10° SW 05:11:58 54° WNW 05:16:19 10° NNE night (unlit)
26 Feb - 13:52:19 10° NNW 13:57:35 58° ENE 14:03:16 10° SE daylight
26 Feb - 15:36:12 10° WNW 15:39:48 18° WSW 15:43:33 10° SSW daylight
27 Feb - 04:25:12 10° SSW 04:29:26 73° ESE 04:33:51 10° NNE night (unlit)
27 Feb - 06:11:18 10° WNW 06:12:34 11° NW 06:13:51 10° NNW night (unlit)
27 Feb - 13:10:07 10° N 13:14:56 34° ENE 13:20:06 10° ESE visible
27 Feb - 14:52:40 10° NW 14:57:27 32° WSW 15:02:32 10° S daylight
28 Feb - 03:43:09 10° S 03:47:02 35° ESE 03:51:02 10° NE night (unlit)
28 Feb - 05:26:31 10° W 05:29:40 19° NW 05:32:55 10° N night (unlit)
28 Feb - 12:28:13 10° N 12:32:11 21° NE 12:36:21 10° E visible
28 Feb - 14:09:44 10° NW 14:15:01 56° WSW 14:20:43 10° S daylight
29 Feb - 03:01:53 10° SSE 03:04:44 17° ESE 03:07:37 10° ENE visible
29 Feb - 04:42:58 10° WSW 04:46:54 35° WNW 04:51:01 10° N night (unlit)
29 Feb - 11:46:59 10° NNE 11:49:16 13° NE 11:51:38 10° ENE visible
29 Feb - 13:27:06 10° NNW 13:32:31 83° ENE 13:38:21 10° SSE visible
29 Feb - 15:12:34 10° W 15:14:32 12° WSW 15:16:32 10° SW daylight
01 Mar - 04:00:02 10° SW 04:04:17 70° WNW 04:08:44 10° NNE visible
01 Mar - 12:44:44 10° NNW 12:49:55 48° ENE 12:55:31 10° SE visible
01 Mar - 14:28:05 10° WNW 14:32:14 22° WSW 14:36:36 10° SSW daylight
02 Mar - 03:17:37 10° SSW 03:21:48 56° ESE 03:26:08 10° NE visible
02 Mar - 05:02:32 10° WNW 05:04:45 14° NW 05:07:02 10° NNW visible
02 Mar - 12:02:36 10° N 12:07:14 29° NE 12:12:10 10° ESE visible
02 Mar - 13:44:49 10° NW 13:49:52 39° WSW 13:55:15 10° S visible
03 Mar - 02:35:48 10° SSE 02:39:26 27° ESE 02:43:10 10° NE visible
03 Mar - 04:18:24 10° WSW 04:21:54 24° NW 04:25:33 10° N visible
03 Mar - 11:20:51 10° N 11:24:25 18° NE 11:28:10 10° E visible
03 Mar - 13:02:00 10° NNW 13:07:24 69° WSW 13:13:14 10° SSE visible
04 Mar - 01:55:01 10° SE 01:57:10 14° ESE 01:59:21 10° ENE daylight
04 Mar - 03:35:05 10° SW 03:39:11 44° WNW 03:43:29 10° NNE visible
04 Mar - 10:40:19 10° NNE 10:41:28 11° NE 10:42:39 10° ENE visible
04 Mar - 12:19:28 10° NNW 12:24:52 69° ENE 12:30:42 10° SE visible
04 Mar - 14:03:55 10° WNW 14:07:00 15° WSW 14:10:11 10° SW daylight
05 Mar - 02:52:20 10° SSW 02:56:36 89° WNW 03:01:06 10° NNE visible
05 Mar - 11:37:10 10° NNW 11:42:15 40° ENE 11:47:42 10° SE visible
05 Mar - 13:20:05 10° NW 13:24:41 27° WSW 13:29:31 10° SSW visible
